[[{"header":{"parameterUnit":"m.s-1","parameterCategory":1,"la1":30.2991,"la2":30.254,"lo1":-89.0895,"lo2":-89.0444,"dy":0.0017,"dx":0.0017,"nx":28,"ny":28,"refTime":"2026-01-01T03:00:00:Z","depth":0,"parameterNumber":2,"parameterNumberName":"U-component_of_WINDS"},"data":[0,0,0,0,0,0,0,0,0,0,0,0,0,0,0,0,0,0,0,0,0,0,0,0,0,0,0,0,0,0,0,0,0,0,0,0,0,0,0,0,0,0,0,0,0,0,0,0,0,0,0,0,0,0,0,0,0,0,3.4161,3.4164,0,3.4417,3.4419,3.4422,3.4457,3.4454,3.4452,3.445,3.4715,3.4724,3.4733,0,0,0,0,0,0,0,0,0,0,0,0,0,3.3707,3.3715,3.4161,3.4164,3.4167,3.4416,3.442,3.4423,3.4457,3.4454,3.4451,3.4449,3.4712,3.4723,3.4734,0,0,0,0,0,0,0,0,0,0,0,0,0,3.3927,3.3717,3.416,3.4214,3.4222,3.4415,3.442,3.4424,3.4458,3.4454,3.4451,3.4447,3.4708,3.4722,3.4735,3.4894,0,0,3.4778,3.4784,0,0,0,0,0,0,0,0,3.3915,3.3944,3.4203,3.4211,3.422,3.4401,3.4357,3.4582,3.4459,3.4368,3.445,3.4446,3.4614,3.4635,3.4691,3.4906,3.4918,3.4779,3.4788,3.4794,3.4798,0,0,0,0,0,0,0,3.3899,3.3933,3.4262,3.4207,3.4217,3.4227,3.4254,3.4399,3.4508,3.4376,3.4379,3.4409,3.4617,3.4678,3.4698,3.4922,3.4779,3.4791,3.48,3.4805,3.528,3.5285,0,0,0,0,0,0,3.3874,3.392,3.4254,3.427,3.4055,3.4238,3.4269,3.4347,3.4507,3.4528,3.4411,3.4409,3.4655,3.4681,3.4707,3.4903,3.4794,3.4807,3.4815,3.5276,3.5281,3.5286,0,0,0,0,0,0,3.3864,3.3903,3.4244,3.4096,3.414,3.425,3.4337,3.4353,3.4414,3.4534,3.4553,3.4453,3.4654,3.4687,3.4847,3.4912,3.4813,3.4826,3.5271,3.5278,3.5284,3.5295,0,0,0,0,0,0,3.3851,3.3899,3.396,3.4097,3.4148,3.4378,3.4341,3.4361,3.4437,3.4437,3.4577,3.4597,3.4653,3.4826,3.4861,3.493,3.4837,3.5266,3.5274,3.5282,3.529,3.5301,3.5311,0,0,0,0,0,3.3834,3.3954,3.3963,3.4003,3.4225,3.4382,3.4411,3.4472,3.4442,3.4504,3.4582,3.4593,3.49,3.4842,3.4882,3.4956,3.5262,3.5272,3.5281,3.5285,3.5299,3.5311,0,0,0,0,0,0,3.3822,3.3973,3.3984,3.4151,3.4253,3.4387,3.4467,3.4485,3.4599,3.4594,3.4666,3.4698,3.4854,3.4922,3.4854,3.5118,3.5078,3.5096,3.5068,3.5082,3.5093,3.5073,3.4848,0,0,0,0,0,3.3839,3.3952,3.4078,3.4214,3.4264,3.4357,3.4428,3.4466,3.4575,3.4619,3.4708,3.4814,3.4935,3.5013,3.513,3.53,3.5331,3.5371,3.5382,3.539,3.5404,3.5499,3.5518,3.5317,3.5317,3.5317,0,0,3.3875,3.3971,3.4038,3.4214,3.4297,3.4414,3.4393,3.4518,3.4605,3.4638,3.4793,3.4863,3.4987,3.5152,3.5229,3.5213,3.5467,3.5402,3.5408,3.5418,3.5511,3.553,3.5546,3.5324,3.5323,3.5322,0,0,3.3999,3.4083,3.4205,3.4289,3.4416,3.4477,3.4506,3.4638,3.4685,3.4842,3.4869,3.4975,3.5181,3.5268,3.5339,3.5498,3.5512,3.5535,3.5591,3.5682,3.5698,3.5712,3.5768,3.5787,3.5549,3.5549,3.5549,0,3.4027,3.4203,3.4266,3.4389,3.4465,3.45,3.4624,3.4703,3.4862,3.4915,3.4894,3.5153,3.524,3.5425,3.5464,3.5521,3.5557,3.5518,3.569,3.5705,3.572,3.5774,3.5794,3.555,3.555,3.555,3.555,0,3.4232,3.4353,3.4437,3.4588,3.4674,3.4798,3.488,3.496,3.4991,3.5055,3.5215,3.5319,3.5458,3.5506,3.5538,3.5697,3.5682,3.5675,3.5637,3.5739,3.5791,3.5812,3.5553,3.5552,3.5552,3.5551,0,0,3.4354,3.4538,3.4568,3.4637,3.478,3.4875,3.5001,3.5136,3.5203,3.5312,3.5419,3.5593,3.5588,3.5668,3.5711,3.5792,3.5909,3.5775,3.5779,3.5795,3.609,3.6093,3.6116,3.5921,3.5925,3.5928,3.6079,0,3.4494,3.4716,3.4777,3.4966,3.5079,3.5114,3.5224,3.5324,3.5387,3.5493,3.5564,3.5686,3.5669,3.5718,3.58,3.5877,3.5969,3.5868,3.6021,3.6026,3.5987,3.6143,3.6147,3.6284,3.61,3.6104,3.6106,0,3.4686,3.4797,3.4997,3.5125,3.5175,3.5272,3.5401,3.5502,3.5617,3.5657,3.5748,3.5783,3.5916,3.5872,3.6057,3.5986,3.6053,3.6101,3.6108,3.6123,3.6071,3.6161,3.633,3.635,3.6139,3.6136,3.6134,0,3.4753,3.4954,3.5099,3.5157,3.5311,3.5378,3.5445,3.5557,3.5634,3.5747,3.5798,3.5926,3.5996,3.6095,3.6164,3.6125,3.6343,3.6304,3.638,3.6378,3.6423,3.6419,3.6603,3.6469,3.6468,3.6468,3.6467,0,3.4902,3.5022,3.5131,3.522,3.5357,3.5426,3.556,3.5629,3.5728,3.5832,3.5872,3.5968,3.6055,3.6164,3.622,3.6364,3.6396,3.6432,3.6445,3.6428,3.6423,3.6471,3.6463,3.6473,3.6472,3.6471,3.647,0,3.4999,3.5077,3.5237,3.537,3.5406,3.55,3.5614,3.5703,3.5768,3.5899,3.5934,3.6037,3.6167,3.6246,3.6413,3.645,3.6608,3.6619,3.6569,3.6575,3.6645,3.6637,3.6865,3.6899,3.6743,3.6745,3.6746,0,3.5088,3.5181,3.5323,3.5395,3.5463,3.5578,3.5657,3.573,3.5811,3.5949,3.6021,3.6154,3.6263,3.6471,3.6561,3.6688,3.6701,3.6772,3.672,3.6699,3.67,3.6693,3.6702,3.678,3.6781,3.6782,3.6783,0,3.5236,3.527,3.5382,3.5508,3.56,3.5703,3.5805,3.5862,3.5953,3.6042,3.6175,3.626,3.6429,3.656,3.6696,3.6766,3.679,3.6799,3.6823,3.6805,3.6772,3.679,3.6591,3.6793,3.6792,3.6792,3.6791,3.6791,3.5332,3.5416,3.5529,3.5652,3.5737,3.5831,3.5921,3.5997,3.6109,3.6251,3.6288,3.6427,3.6541,3.6725,3.6799,3.691,3.6899,3.6934,3.6943,3.695,3.695,3.6756,3.6935,3.6935,3.6935,3.6935,3.6934,0,3.5481,3.5556,3.5668,3.5809,3.5907,3.592,3.6035,3.6115,3.6237,3.634,3.6447,3.6601,3.6729,3.6829,3.696,3.703,3.7044,3.7062,3.7057,3.7073,3.6953,3.6919,3.7048,3.7048,3.7048,3.7048,3.7048,3.7048,3.557,3.5713,3.5761,3.5947,3.6021,3.6157,3.6221,3.6309,3.6392,3.6561,3.6667,3.6731,3.6834,3.6973,3.7091,3.7118,3.7164,3.7179,3.7207,3.7094,3.7081,3.7069,3.7037,3.7189,3.7189,3.7318,3.7319,3.732]},{"header":{"parameterUnit":"m.s-1","parameterCategory":1,"la1":30.2991,"la2":30.254,"lo1":-89.0895,"lo2":-89.0444,"dy":0.0017,"dx":0.0017,"nx":28,"ny":28,"refTime":"2026-01-01T03:00:00:Z","depth":0,"parameterNumber":3,"parameterNumberName":"V-component_of_WINDS"},"data":[0,0,0,0,0,0,0,0,0,0,0,0,0,0,0,0,0,0,0,0,0,0,0,0,0,0,0,0,0,0,0,0,0,0,0,0,0,0,0,0,0,0,0,0,0,0,0,0,0,0,0,0,0,0,0,0,0,0,1.7081,1.7082,0,1.7142,1.7143,1.7144,1.7132,1.7131,1.7129,1.7128,1.7192,1.7194,1.7197,0,0,0,0,0,0,0,0,0,0,0,0,0,1.6953,1.6956,1.7081,1.7082,1.7083,1.7142,1.7143,1.7144,1.7132,1.713,1.7129,1.7128,1.7191,1.7194,1.7197,0,0,0,0,0,0,0,0,0,0,0,0,0,1.7011,1.6957,1.7081,1.7084,1.7085,1.7142,1.7143,1.7144,1.7132,1.713,1.7129,1.7127,1.719,1.7194,1.7198,1.7256,0,0,1.721,1.7212,0,0,0,0,0,0,0,0,1.7008,1.7016,1.7083,1.7084,1.7085,1.7128,1.7121,1.7182,1.7133,1.7114,1.7128,1.7126,1.7172,1.7177,1.7192,1.7259,1.7262,1.7211,1.7213,1.7215,1.7216,0,0,0,0,0,0,0,1.7004,1.7013,1.7106,1.7084,1.7085,1.7082,1.7088,1.7133,1.7152,1.7116,1.7115,1.7122,1.7172,1.7188,1.7194,1.7263,1.721,1.7214,1.7217,1.7218,1.738,1.7381,0,0,0,0,0,0,1.6999,1.701,1.7104,1.7107,1.7041,1.7086,1.7093,1.7116,1.7151,1.7155,1.7124,1.7121,1.7182,1.7189,1.7196,1.7266,1.7215,1.7219,1.7221,1.7378,1.738,1.7382,0,0,0,0,0,0,1.6996,1.7007,1.7101,1.7058,1.707,1.709,1.7115,1.7118,1.7134,1.7157,1.716,1.7137,1.7181,1.719,1.7241,1.7268,1.722,1.7224,1.7376,1.7379,1.7381,1.7408,0,0,0,0,0,0,1.6993,1.7007,1.7029,1.7059,1.7072,1.7146,1.7117,1.712,1.7141,1.7139,1.7171,1.7174,1.7181,1.7235,1.7245,1.7273,1.7227,1.7373,1.7377,1.738,1.7405,1.7412,1.7417,0,0,0,0,0,1.6988,1.7035,1.7031,1.7042,1.7101,1.7147,1.7155,1.7161,1.7143,1.7166,1.7181,1.7173,1.7264,1.724,1.7252,1.7281,1.7372,1.7376,1.738,1.7402,1.741,1.7417,0,0,0,0,0,0,1.7009,1.7039,1.7035,1.7092,1.7117,1.7145,1.7174,1.717,1.72,1.7197,1.7203,1.7211,1.7262,1.7277,1.725,1.7339,1.7315,1.7322,1.7328,1.7336,1.7342,1.7338,1.7231,0,0,0,0,0,1.702,1.7055,1.7079,1.7128,1.714,1.7155,1.7175,1.7178,1.7204,1.7215,1.7233,1.7258,1.7292,1.7315,1.7348,1.7407,1.7413,1.7432,1.7438,1.7443,1.7449,1.7481,1.7489,1.7396,1.7396,1.7396,0,0,1.7044,1.7065,1.7086,1.7132,1.7152,1.7188,1.7164,1.7203,1.723,1.7221,1.727,1.7284,1.7313,1.7368,1.7393,1.7381,1.7476,1.7449,1.7452,1.7456,1.7486,1.7495,1.7502,1.7399,1.7398,1.7398,0,0,1.7105,1.7125,1.7167,1.7186,1.7216,1.7225,1.7235,1.7263,1.7272,1.7321,1.7315,1.7346,1.7405,1.7426,1.7444,1.7511,1.7505,1.7521,1.7553,1.7584,1.7591,1.7598,1.7621,1.763,1.7527,1.7527,1.7527,0,1.7131,1.7185,1.7189,1.7228,1.7249,1.7241,1.7284,1.7303,1.7341,1.7355,1.7342,1.7414,1.7433,1.7493,1.7509,1.7524,1.7535,1.7518,1.759,1.7596,1.7602,1.7625,1.7634,1.7529,1.7528,1.7528,1.7528,0,1.7215,1.7252,1.7282,1.7319,1.7343,1.7383,1.7394,1.7417,1.7417,1.7427,1.7477,1.7499,1.7535,1.7549,1.755,1.7608,1.76,1.7588,1.7564,1.7613,1.7634,1.7643,1.7531,1.753,1.753,1.7529,0,0,1.7293,1.733,1.7341,1.7358,1.7389,1.7417,1.7457,1.7492,1.7512,1.7538,1.7571,1.762,1.7609,1.7629,1.7632,1.7658,1.7709,1.7643,1.7644,1.7654,1.7774,1.7783,1.7793,1.7705,1.7707,1.7708,1.7772,0,1.7357,1.7427,1.7432,1.7495,1.7529,1.7521,1.7556,1.7578,1.7588,1.7618,1.7629,1.7664,1.7646,1.7659,1.7684,1.7698,1.7734,1.7693,1.7736,1.7737,1.7729,1.7805,1.7815,1.7874,1.778,1.7782,1.7783,0,1.7442,1.747,1.7537,1.7562,1.7576,1.7607,1.7639,1.7668,1.7693,1.7698,1.772,1.7718,1.7758,1.7732,1.7787,1.7759,1.7777,1.7786,1.7788,1.7793,1.7763,1.7811,1.7893,1.7902,1.7796,1.7795,1.7794,0,1.7492,1.7546,1.7593,1.7607,1.7638,1.7659,1.7673,1.7696,1.7717,1.7744,1.7757,1.7789,1.7807,1.7832,1.7838,1.7819,1.7893,1.7867,1.7898,1.7898,1.7915,1.7914,1.8001,1.7926,1.7926,1.7926,1.7925,0,1.7564,1.7605,1.7616,1.7645,1.769,1.7694,1.7739,1.7751,1.7771,1.7802,1.7797,1.7826,1.7833,1.7863,1.7868,1.7912,1.792,1.7926,1.7927,1.7926,1.7926,1.7938,1.7935,1.7928,1.7927,1.7927,1.7927,0,1.7628,1.7637,1.7687,1.7711,1.7718,1.775,1.7771,1.7798,1.7807,1.7846,1.7855,1.7869,1.7904,1.7912,1.7954,1.7958,1.801,1.8007,1.8002,1.8002,1.8032,1.8029,1.8131,1.8144,1.806,1.8061,1.8061,0,1.7673,1.7704,1.7731,1.7751,1.7766,1.7798,1.7818,1.7823,1.7844,1.7874,1.7898,1.7932,1.7959,1.8015,1.8029,1.806,1.8058,1.8091,1.8063,1.8061,1.8058,1.8057,1.8059,1.8097,1.8098,1.8099,1.8099,0,1.7753,1.7755,1.7785,1.7816,1.784,1.7864,1.7888,1.7904,1.7912,1.7936,1.7971,1.7993,1.8035,1.8068,1.81,1.8113,1.8108,1.8108,1.8117,1.8117,1.8113,1.8115,1.8017,1.8106,1.8105,1.8105,1.8104,1.8104,1.7809,1.7836,1.7859,1.7891,1.7909,1.7931,1.7957,1.7969,1.7998,1.8032,1.8033,1.8071,1.8094,1.8135,1.815,1.818,1.817,1.8183,1.8186,1.8189,1.8192,1.8107,1.8186,1.8186,1.8185,1.8185,1.8185,0,1.7888,1.7902,1.7932,1.7964,1.799,1.7981,1.8006,1.8028,1.8062,1.8083,1.811,1.815,1.8182,1.8197,1.8229,1.8249,1.8248,1.8258,1.8256,1.8259,1.8199,1.8188,1.8259,1.8259,1.8259,1.8259,1.8259,1.8259,1.7932,1.7977,1.7982,1.8035,1.8049,1.8086,1.8101,1.812,1.8137,1.8182,1.8208,1.8218,1.8237,1.8269,1.8298,1.8302,1.8314,1.8325,1.8328,1.8271,1.8264,1.8257,1.8247,1.8328,1.8328,1.8385,1.8386,1.8386]}]]